Simultaneous Nadir Overpasses (SNOs) Predictions

Prediction of SNOs between LANDSAT-8 and METOP-A Satellite Orbit:

Table of predicted SNOs for the next 14.0 days since TLE Epoch: 4/2/2016
Index Date (LANDSAT-8) Time (LANDSAT-8) Lat,Lon (LANDSAT-8) SZA (LANDSAT-8 ) Date (METOP-A) Time (METOP-A) Lat,Lon (METOP-A) SZA (METOP-A ) Distance(km) Time Diff (sec)
1 04/02/2016 08:26:43 -81.11, -87.42 102.12 04/02/2016 08:26:37 -81.11, -87.44 102.12 0.62 6
2 04/02/2016 09:16:08 81.14, 80.71 77.94 04/02/2016 09:17:15 81.14, 80.74 77.97 0.59 67
3 04/05/2016 03:11:30 81.11, 171.38 76.85 04/05/2016 03:10:19 81.11, 171.45 76.82 1.27 71
4 04/05/2016 04:00:56 -81.13, -20.70 103.13 04/05/2016 04:00:59 -81.13, -20.68 103.13 0.34 3
5 04/07/2016 22:45:45 81.10,-122.33 75.79 04/07/2016 22:44:43 81.11,-122.21 75.78 2.17 62
6 04/07/2016 23:35:11 -81.12, 45.62 104.18 04/07/2016 23:35:23 -81.12, 45.68 104.17 1.07 12
7 04/10/2016 18:19:59 81.11, -55.72 74.80 04/10/2016 18:19:07 81.10, -55.89 74.75 3.03 52
8 04/10/2016 19:09:25 -81.13, 112.26 105.17 04/10/2016 19:09:46 -81.14, 112.39 105.15 2.32 21
9 04/13/2016 13:54:13 81.10, 10.48 73.76 04/13/2016 13:53:30 81.10, 10.42 73.74 1.15 43




NCC Satellite Simultaneous Nadir Overpasses (SNOs) Prediction Service
